Time,TemperatureF,DewpointF,PressureIn,WindDirection,WindDirectionDegrees,WindSpeedMPH,WindSpeedGustMPH,Humidity,HourlyPrecipIn,Conditions,Clouds,dailyrainin,SoftwareType,DateUTC
2013-10-29 03:13:00,61.0,60.0,30.15,East,96,0.0,1.0,96,0.00,,,0.01,,2013-10-29 08:13:00,
2013-10-29 03:24:00,60.0,59.0,30.15,East,96,0.0,0.0,96,0.00,,,0.01,,2013-10-29 08:24:00,
2013-10-29 03:42:00,60.0,59.0,30.15,East,96,0.0,0.0,96,0.00,,,0.01,,2013-10-29 08:42:00,
2013-10-29 03:52:00,59.0,58.0,30.14,East,96,0.0,1.0,96,0.00,,,0.01,,2013-10-29 08:52:00,
2013-10-29 04:11:00,59.0,58.0,30.14,East,96,0.0,1.0,96,0.00,,,0.01,,2013-10-29 09:11:00,
2013-10-29 04:21:00,59.0,58.0,30.14,East,96,0.0,0.0,96,0.00,,,0.01,,2013-10-29 09:21:00,
2013-10-29 04:43:00,59.0,58.0,30.14,East,96,0.0,0.0,96,0.00,,,0.01,,2013-10-29 09:43:00,
2013-10-29 04:53:00,59.0,58.0,30.14,East,96,0.0,0.0,96,0.00,,,0.01,,2013-10-29 09:53:00,
2013-10-29 05:13:00,59.0,58.0,30.15,East,97,2.0,5.0,96,0.00,,,0.01,,2013-10-29 10:13:00,
2013-10-29 05:23:00,59.0,58.0,30.15,East,98,0.0,5.0,96,0.00,,,0.01,,2013-10-29 10:23:00,
2013-10-29 05:42:00,59.0,58.0,30.16,East,97,0.0,1.0,96,0.00,,,0.01,,2013-10-29 10:42:00,
2013-10-29 05:53:00,59.0,58.0,30.16,East,98,1.0,2.0,96,0.00,,,0.01,,2013-10-29 10:53:00,
2013-10-29 06:12:00,59.0,58.0,30.16,ESE,102,2.0,5.0,97,0.00,,,0.01,,2013-10-29 11:12:00,
2013-10-29 06:22:00,59.0,58.0,30.16,ESE,103,0.0,3.0,97,0.00,,,0.01,,2013-10-29 11:22:00,
2013-10-29 06:42:00,59.0,58.0,30.16,ESE,103,0.0,1.0,97,0.00,,,0.01,,2013-10-29 11:42:00,
2013-10-29 06:52:00,60.0,59.0,30.17,ESE,103,0.0,2.0,97,0.00,,,0.01,,2013-10-29 11:52:00,
2013-10-29 07:12:00,60.0,59.0,30.17,ESE,103,1.0,3.0,97,0.00,,,0.01,,2013-10-29 12:12:00,
2013-10-29 07:21:00,60.0,59.0,30.17,ESE,103,1.0,3.0,97,0.00,,,0.01,,2013-10-29 12:21:00,
2013-10-29 07:52:00,59.0,58.0,30.17,SE,134,1.0,5.0,97,0.00,,,0.01,,2013-10-29 12:52:00,
2013-10-29 08:11:00,59.0,58.0,30.17,SE,135,4.0,7.0,97,0.00,,,0.01,,2013-10-29 13:11:00,
2013-10-29 08:21:00,59.0,58.0,30.17,SE,138,5.0,7.0,97,0.00,,,0.01,,2013-10-29 13:21:00,
2013-10-29 08:42:00,59.0,58.0,30.17,SE,134,3.0,7.0,97,0.00,,,0.01,,2013-10-29 13:42:00,
2013-10-29 08:52:00,60.0,59.0,30.18,SE,130,4.0,7.0,97,0.00,,,0.01,,2013-10-29 13:52:00,
2013-10-29 09:11:00,61.0,60.0,30.19,SE,130,4.0,7.0,97,0.00,,,0.01,,2013-10-29 14:11:00,
2013-10-29 09:21:00,62.0,61.0,30.19,SE,128,3.0,6.0,97,0.00,,,0.01,,2013-10-29 14:21:00,
2013-10-29 09:42:00,63.0,62.0,30.19,SE,129,2.0,6.0,97,0.00,,,0.01,,2013-10-29 14:42:00,
2013-10-29 09:52:00,64.0,63.0,30.20,SE,130,3.0,6.0,97,0.00,,,0.01,,2013-10-29 14:52:00,
2013-10-29 10:11:00,65.0,64.0,30.20,SE,132,3.0,6.0,97,0.00,,,0.01,,2013-10-29 15:11:00,
2013-10-29 10:21:00,66.0,65.0,30.19,SSE,152,5.0,7.0,97,0.00,,,0.01,,2013-10-29 15:21:00,
2013-10-29 10:44:00,68.0,66.0,30.19,SE,135,6.0,9.0,94,0.00,,,0.01,,2013-10-29 15:44:00,
2013-10-29 10:54:00,69.0,66.0,30.19,SSE,167,5.0,9.0,89,0.00,,,0.01,,2013-10-29 15:54:00,
2013-10-29 11:13:00,71.0,66.0,30.19,SSE,157,7.0,10.0,84,0.00,,,0.01,,2013-10-29 16:13:00,
2013-10-29 11:23:00,72.0,67.0,30.19,SE,140,6.0,10.0,83,0.00,,,0.01,,2013-10-29 16:23:00,
2013-10-29 11:43:00,72.0,66.0,30.19,SE,129,4.0,9.0,81,0.00,,,0.01,,2013-10-29 16:43:00,
2013-10-29 11:53:00,73.0,66.0,30.19,SE,143,5.0,10.0,79,0.00,,,0.01,,2013-10-29 16:53:00,
2013-10-29 12:12:00,74.0,66.0,30.19,SE,135,7.0,10.0,77,0.00,,,0.01,,2013-10-29 17:12:00,
2013-10-29 12:22:00,75.0,67.0,30.18,SSE,161,6.0,10.0,76,0.00,,,0.01,,2013-10-29 17:22:00,
2013-10-29 12:42:00,76.0,67.0,30.18,SSE,168,6.0,11.0,73,0.00,,,0.01,,2013-10-29 17:42:00,
2013-10-29 12:52:00,76.0,66.0,30.18,SSE,151,5.0,12.0,71,0.01,,,0.02,,2013-10-29 17:52:00,
2013-10-29 13:12:00,77.0,66.0,30.17,SSE,161,8.0,11.0,69,0.01,,,0.02,,2013-10-29 18:12:00,
2013-10-29 13:21:00,78.0,65.0,30.16,SE,139,9.0,14.0,65,0.01,,,0.02,,2013-10-29 18:21:00,
2013-10-29 13:42:00,78.0,65.0,30.15,South,173,6.0,13.0,64,0.01,,,0.02,,2013-10-29 18:42:00,
2013-10-29 13:52:00,78.0,62.0,30.15,SE,144,7.0,14.0,59,0.00,,,0.02,,2013-10-29 18:52:00,
2013-10-29 14:11:00,79.0,64.0,30.14,South,177,4.0,10.0,61,0.00,,,0.02,,2013-10-29 19:11:00,
2013-10-29 14:22:00,79.0,63.0,30.13,SSE,153,4.0,14.0,59,0.00,,,0.02,,2013-10-29 19:22:00,
2013-10-29 14:42:00,79.0,62.0,30.12,SSE,166,4.0,9.0,57,0.00,,,0.02,,2013-10-29 19:42:00,
2013-10-29 14:53:00,80.0,63.0,30.12,SSW,208,4.0,10.0,56,0.00,,,0.02,,2013-10-29 19:53:00,
2013-10-29 15:12:00,80.0,64.0,30.11,SSW,197,3.0,13.0,58,0.00,,,0.02,,2013-10-29 20:12:00,
2013-10-29 15:22:00,80.0,63.0,30.11,SSE,167,4.0,13.0,56,0.00,,,0.02,,2013-10-29 20:22:00,
2013-10-29 15:42:00,80.0,63.0,30.11,SE,141,9.0,13.0,56,0.00,,,0.02,,2013-10-29 20:42:00,
2013-10-29 15:52:00,80.0,63.0,30.10,SSE,157,6.0,13.0,56,0.00,,,0.02,,2013-10-29 20:52:00,
2013-10-29 16:12:00,80.0,63.0,30.10,SSE,154,7.0,12.0,57,0.00,,,0.02,,2013-10-29 21:12:00,
2013-10-29 16:22:00,80.0,64.0,30.09,SSE,157,8.0,15.0,58,0.00,,,0.02,,2013-10-29 21:22:00,
2013-10-29 16:54:00,79.0,63.0,30.10,SSE,154,5.0,11.0,59,0.00,,,0.02,,2013-10-29 21:54:00,
2013-10-29 17:13:00,79.0,63.0,30.10,South,180,5.0,11.0,59,0.00,,,0.02,,2013-10-29 22:13:00,
2013-10-29 17:23:00,78.0,63.0,30.10,SSE,161,5.0,10.0,61,0.00,,,0.02,,2013-10-29 22:23:00,
2013-10-29 17:43:00,78.0,64.0,30.10,SSE,155,5.0,9.0,62,0.00,,,0.02,,2013-10-29 22:43:00,
2013-10-29 17:53:00,78.0,64.0,30.10,South,175,6.0,9.0,63,0.00,,,0.02,,2013-10-29 22:53:00,
2013-10-29 18:12:00,77.0,64.0,30.10,SE,142,5.0,9.0,65,0.00,,,0.02,,2013-10-29 23:12:00,
2013-10-29 18:22:00,76.0,64.0,30.11,SSE,148,4.0,9.0,66,0.00,,,0.02,,2013-10-29 23:22:00,
2013-10-29 18:43:00,76.0,65.0,30.11,SE,144,4.0,9.0,68,0.00,,,0.02,,2013-10-29 23:43:00,
2013-10-29 18:53:00,75.0,64.0,30.11,SSE,157,3.0,7.0,69,0.00,,,0.02,,2013-10-29 23:53:00,
2013-10-29 19:11:00,74.0,64.0,30.11,SE,146,4.0,6.0,71,0.00,,,0.02,,2013-10-30 00:11:00,
2013-10-29 19:21:00,73.0,63.0,30.11,SSE,152,5.0,7.0,72,0.00,,,0.02,,2013-10-30 00:21:00,
2013-10-29 19:42:00,72.0,63.0,30.12,SSE,159,3.0,6.0,74,0.00,,,0.02,,2013-10-30 00:42:00,
2013-10-29 19:52:00,71.0,63.0,30.12,SSE,148,3.0,5.0,76,0.00,,,0.02,,2013-10-30 00:52:00,
2013-10-29 20:12:00,71.0,63.0,30.12,SSE,154,3.0,5.0,77,0.00,,,0.02,,2013-10-30 01:12:00,
2013-10-29 20:22:00,71.0,64.0,30.12,SSE,159,2.0,5.0,78,0.00,,,0.02,,2013-10-30 01:22:00,
2013-10-29 20:42:00,70.0,63.0,30.14,SSE,151,0.0,3.0,79,0.00,,,0.02,,2013-10-30 01:42:00,
2013-10-29 20:52:00,70.0,63.0,30.13,SE,131,2.0,4.0,79,0.00,,,0.02,,2013-10-30 01:52:00,
2013-10-29 21:11:00,70.0,63.0,30.14,SE,135,3.0,4.0,79,0.00,,,0.02,,2013-10-30 02:11:00,
2013-10-29 21:22:00,69.0,63.0,30.14,SE,136,4.0,6.0,80,0.00,,,0.02,,2013-10-30 02:22:00,
2013-10-29 21:32:00,69.0,63.0,30.14,SE,136,4.0,6.0,80,0.00,,,0.02,,2013-10-30 02:32:00,
2013-10-29 21:42:00,69.0,63.0,30.14,SE,136,4.0,6.0,80,0.00,,,0.02,,2013-10-30 02:42:00,
2013-10-29 21:52:00,69.0,63.0,30.14,SE,134,3.0,4.0,81,0.00,,,0.02,,2013-10-30 02:52:00,
2013-10-29 22:11:00,69.0,63.0,30.14,SE,134,2.0,4.0,81,0.00,,,0.02,,2013-10-30 03:11:00,
2013-10-29 22:21:00,68.0,62.0,30.15,SE,134,2.0,4.0,82,0.00,,,0.02,,2013-10-30 03:21:00,
2013-10-29 22:44:00,68.0,62.0,30.15,SE,131,2.0,4.0,82,0.00,,,0.02,,2013-10-30 03:44:00,
2013-10-29 22:54:00,68.0,63.0,30.15,SE,136,3.0,6.0,83,0.00,,,0.02,,2013-10-30 03:54:00,
2013-10-29 23:13:00,68.0,63.0,30.15,SE,131,5.0,7.0,83,0.00,,,0.02,,2013-10-30 04:13:00,
2013-10-29 23:44:00,68.0,63.0,30.15,SSE,148,5.0,9.0,84,0.00,,,0.02,,2013-10-30 04:44:00,
2013-10-29 23:53:00,67.0,62.0,30.14,SE,142,7.0,11.0,85,0.00,,,0.02,,2013-10-30 04:53:00,